Flag for Argentina Weather past 2 weeks in Resistencia, Chaco, Argentina

Now
75 °F

Clear.


Feels Like: 77 °F
Forecast: N/A
Wind: 9 mph from Southeast

Location: Resistencia Aero.

Current Time: Oct 1, 2014 at 7:56:21 PM

Latest Report: Oct 1, 2014 at 7:00 PM


Visibility: 10 mi

Pressure: 30.04 "Hg

Humidity: 61%

Dew point: 61 °F

Location of ResistenciaLocation

Historic Weather in Resistencia — Graph

°F

Resistencia temperature yesterday

Maximum temperature yesterday: 79 °F (at 3:00 PM)
Minimum temperature yesterday: 68 °F (at 7:00 PM)
Average temperature yesterday: 73 °F

Past Weeks' High & Low Weather Summary

 TemperatureHumidityPressure
High90 °F (Sep 23, 1:00 PM)100% (Sep 18, 6:00 AM)30.86 "Hg (Sep 18, 6:00 AM)
Low48 °F (Sep 21, 6:00 AM)32% (Sep 26, 2:00 PM)29.65 "Hg (Sep 23, 4:00 PM)
Average70 °F78%29.88 "Hg
* Reported Sep 16 6:00 PM — Oct 1 6:00 PM, Resistencia, Weather by CustomWeather, © 2014

Note: Actual official high and low records may vary slightly from our data, if they occured in-between our weather recording intervals... More about our weather records

Advertising

Resistencia weather history for previous 24 hours

 ConditionsComfort  
Time TempWeatherWind HumidityBarometerVisibility
6:00 PM
Oct 1
77 °FPassing clouds.12 mph61%30.04 "HgN/A
5:00 PM79 °FPartly sunny.16 mph61%30.04 "HgN/A
4:00 PM79 °FPartly sunny.10 mph58%30.07 "HgN/A
3:00 PM81 °FPartly sunny.10 mph58%30.07 "HgN/A
2:00 PM79 °FPartly sunny.6 mph65%30.09 "HgN/A
1:00 PM75 °FPartly sunny.1 mph74%30.12 "HgN/A
12:00 PM72 °FPartly sunny.2 mph73%30.12 "HgN/A
11:00 AM70 °FPartly sunny.6 mph78%30.12 "HgN/A
10:00 AM68 °FOvercast.7 mph83%30.09 "HgN/A
9:00 AM66 °FOvercast.6 mph88%30.09 "HgN/A
8:00 AM66 °FLow clouds.8 mph88%30.04 "HgN/A
7:00 AM64 °FLow clouds.6 mph94%30.01 "HgN/A
6:00 AM64 °FLow clouds.7 mph94%29.98 "HgN/A
5:00 AM64 °FLow clouds.8 mph94%29.98 "HgN/A
4:00 AM66 °FDrizzle. Low clouds.9 mph94%29.98 "Hg5 mi
3:00 AM66 °FLow clouds.13 mph94%29.98 "HgN/A
2:00 AM66 °FLow clouds.12 mph94%29.98 "HgN/A
1:00 AM66 °FLow clouds.7 mph94%29.95 "HgN/A
12:00 AM66 °FLow clouds.5 mph94%29.95 "HgN/A
11:00 PM
Sep 30
68 °FMostly cloudy.2 mph88%29.92 "HgN/A
10:00 PM68 °FPartly cloudy.7 mph88%29.89 "HgN/A
9:00 PM68 °FMostly cloudy.8 mph94%29.89 "HgN/A
8:00 PM68 °FMostly cloudy.10 mph94%29.86 "HgN/A
7:30 PM68 °FMostly cloudy.13 mph94%29.86 "HgN/A
7:00 PM68 °FDrizzle. Mostly cloudy.14 mph94%29.86 "HgN/A
Weather by CustomWeather, © 2014

See weather overviewHow to use our weather pages